Location: Unspecified
(0.0000°N, 0.0000°E)
Time: 19:05:03
(UTC+02:00)

Cosmos 2263 Rocket - Visible Passes

Search period start: 28 September 2016 00:00
Search period end: 08 October 2016 00:00
Orbit: 825 x 847 km, 71.0° (Epoch: 27 September)

Date Brightness Start Highest point End Pass type
(mag) Time Alt. Az. Time Alt. Az. Time Alt. Az.
28 Sep 2.1 07:00:29 10° SSW 07:06:03 70° WNW 07:11:35 10° N visible
29 Sep 2.1 06:43:46 10° SSW 06:49:22 79° WNW 06:54:56 10° NNE visible
30 Sep 2.1 06:27:03 10° SSW 06:32:41 88° WNW 06:38:15 10° NNE visible
01 Oct 2.1 06:10:23 10° SSW 06:16:00 83° ESE 06:21:33 10° NNE visible
02 Oct 2.2 05:56:12 27° S 05:59:18 74° ESE 06:04:51 10° NNE visible
03 Oct 2.6 05:43:30 56° ENE 05:43:30 56° ENE 05:48:07 10° NNE visible
04 Oct 4.1 05:29:41 20° NNE 05:29:41 20° NNE 05:31:22 10° NNE visible
